[[{"header":{"parameterUnit":"m.s-1","parameterCategory":1,"la1":30.2991,"la2":30.254,"lo1":-89.0895,"lo2":-89.0444,"dy":0.0017,"dx":0.0017,"nx":28,"ny":28,"refTime":"2024-03-04T09:00:00:Z","depth":0,"parameterNumber":2,"parameterNumberName":"U-component_of_WINDS"},"data":[0,0,0,0,0,0,0,0,0,0,0,0,0,0,0,0,0,0,0,0,0,0,0,0,0,0,0,0,0,0,0,0,0,0,0,0,0,0,0,0,0,0,0,0,0,0,0,0,0,0,0,0,0,0,0,0,0,0,-4.4429,-4.443,0,-4.4539,-4.454,-4.4541,-4.4567,-4.4566,-4.4565,-4.4565,-4.4677,-4.468,-4.4684,0,0,0,0,0,0,0,0,0,0,0,0,0,-4.4241,-4.4245,-4.4429,-4.4431,-4.4432,-4.4538,-4.454,-4.4542,-4.4567,-4.4566,-4.4565,-4.4564,-4.4676,-4.468,-4.4684,0,0,0,0,0,0,0,0,0,0,0,0,0,-4.4334,-4.4246,-4.4429,-4.4457,-4.4461,-4.4538,-4.454,-4.4542,-4.4567,-4.4566,-4.4565,-4.4564,-4.4674,-4.4679,-4.4685,-4.4741,0,0,-4.4702,-4.4704,0,0,0,0,0,0,0,0,-4.4329,-4.4341,-4.4452,-4.4456,-4.446,-4.4538,-4.4515,-4.4609,-4.4567,-4.4527,-4.4565,-4.4563,-4.4631,-4.464,-4.4663,-4.4747,-4.4752,-4.4702,-4.4706,-4.4708,-4.471,0,0,0,0,0,0,0,-4.4322,-4.4336,-4.4472,-4.4453,-4.4458,-4.4464,-4.4476,-4.4533,-4.4584,-4.453,-4.4532,-4.4545,-4.4633,-4.4658,-4.4666,-4.4753,-4.4702,-4.4707,-4.471,-4.4713,-4.4887,-4.4888,0,0,0,0,0,0,-4.4311,-4.4331,-4.4469,-4.4476,-4.439,-4.4469,-4.4482,-4.4514,-4.4584,-4.4593,-4.4546,-4.4546,-4.4649,-4.466,-4.467,-4.474,-4.4708,-4.4713,-4.4716,-4.4885,-4.4887,-4.4888,0,0,0,0,0,0,-4.4307,-4.4323,-4.4465,-4.4404,-4.4422,-4.4473,-4.4509,-4.4517,-4.4541,-4.4595,-4.4605,-4.4562,-4.4649,-4.4663,-4.4723,-4.4744,-4.4716,-4.4721,-4.4884,-4.4886,-4.4888,-4.488,0,0,0,0,0,0,-4.4301,-4.4321,-4.4344,-4.4404,-4.4426,-4.4516,-4.451,-4.452,-4.4551,-4.4552,-4.4613,-4.4622,-4.4649,-4.4715,-4.4729,-4.4751,-4.4725,-4.4882,-4.4885,-4.4887,-4.4879,-4.4881,-4.4884,0,0,0,0,0,-4.4295,-4.4337,-4.4345,-4.4361,-4.4454,-4.4517,-4.4529,-4.456,-4.4552,-4.4575,-4.4609,-4.462,-4.474,-4.4721,-4.4737,-4.4761,-4.4881,-4.4884,-4.4887,-4.4877,-4.4881,-4.4884,0,0,0,0,0,0,-4.4278,-4.4346,-4.4355,-4.4419,-4.4462,-4.4521,-4.4551,-4.4563,-4.4609,-4.4608,-4.4644,-4.4657,-4.4715,-4.4745,-4.4722,-4.4819,-4.481,-4.4816,-4.4797,-4.4801,-4.4804,-4.4795,-4.473,0,0,0,0,0,-4.4282,-4.4327,-4.4384,-4.4435,-4.4456,-4.4499,-4.4528,-4.4548,-4.4594,-4.4612,-4.4651,-4.4696,-4.4744,-4.4774,-4.4821,-4.4883,-4.4896,-4.4908,-4.491,-4.4912,-4.4917,-4.495,-4.4956,-4.4898,-4.4898,-4.4898,0,0,-4.429,-4.4333,-4.4359,-4.4433,-4.4468,-4.4514,-4.4515,-4.4563,-4.4597,-4.462,-4.4679,-4.4709,-4.4761,-4.4822,-4.4851,-4.4848,-4.4936,-4.4916,-4.4917,-4.4921,-4.4954,-4.4959,-4.4964,-4.49,-4.49,-4.49,0,0,-4.4329,-4.4366,-4.4412,-4.4447,-4.4501,-4.453,-4.4541,-4.4598,-4.4619,-4.4679,-4.4696,-4.4737,-4.4819,-4.4855,-4.4884,-4.4935,-4.4945,-4.4949,-4.4962,-4.4995,-4.4999,-4.5003,-4.502,-4.5026,-4.4954,-4.4954,-4.4954,0,-4.4332,-4.4402,-4.4434,-4.4481,-4.4512,-4.4534,-4.458,-4.4614,-4.468,-4.4701,-4.4697,-4.4799,-4.4836,-4.4905,-4.4917,-4.494,-4.4953,-4.4942,-4.4996,-4.5001,-4.5005,-4.5021,-4.5028,-4.4954,-4.4954,-4.4954,-4.4954,0,-4.4403,-4.4451,-4.4481,-4.4544,-4.4579,-4.4626,-4.4664,-4.4695,-4.4712,-4.474,-4.48,-4.4845,-4.4901,-4.4919,-4.4936,-4.499,-4.4987,-4.4989,-4.4981,-4.501,-4.5026,-4.5032,-4.4954,-4.4954,-4.4954,-4.4954,0,0,-4.4434,-4.4513,-4.4524,-4.4552,-4.4613,-4.4651,-4.4698,-4.4752,-4.4777,-4.4823,-4.4862,-4.493,-4.4933,-4.4965,-4.4987,-4.5015,-4.505,-4.5014,-4.5015,-4.5018,-4.5111,-4.5108,-4.5115,-4.5058,-4.506,-4.5061,-4.5107,0,-4.4479,-4.4564,-4.4593,-4.4663,-4.4707,-4.4728,-4.4769,-4.481,-4.4838,-4.4879,-4.491,-4.4957,-4.4957,-4.4977,-4.5006,-4.504,-4.5069,-4.5037,-4.5095,-4.5096,-4.508,-4.5124,-4.5121,-4.5163,-4.5113,-4.5114,-4.5115,0,-4.4543,-4.4588,-4.4662,-4.4716,-4.4735,-4.4772,-4.4823,-4.4862,-4.4909,-4.4927,-4.4963,-4.4982,-4.5032,-4.5021,-4.5089,-4.5066,-4.5092,-4.5112,-4.5114,-4.512,-4.5107,-4.513,-4.5177,-4.5182,-4.5125,-4.5125,-4.5124,0,-4.4557,-4.4636,-4.469,-4.4714,-4.4779,-4.4803,-4.4831,-4.4877,-4.4908,-4.4952,-4.4972,-4.5022,-4.505,-4.5088,-4.5119,-4.5109,-4.5184,-4.5176,-4.52,-4.5199,-4.5214,-4.5213,-4.5265,-4.5232,-4.5232,-4.5232,-4.5232,0,-4.4603,-4.4647,-4.4697,-4.473,-4.478,-4.4813,-4.4861,-4.4891,-4.4931,-4.497,-4.4992,-4.5028,-4.5068,-4.5109,-4.5134,-4.5185,-4.5198,-4.5214,-4.5219,-4.5211,-4.5209,-4.5228,-4.5225,-4.5234,-4.5233,-4.5233,-4.5233,0,-4.4627,-4.4662,-4.4722,-4.4778,-4.4793,-4.4827,-4.4875,-4.4908,-4.4936,-4.4985,-4.4998,-4.5043,-4.5092,-4.5127,-4.5191,-4.5208,-4.5263,-4.527,-4.5247,-4.525,-4.5271,-4.5268,-4.5336,-4.5346,-4.5307,-4.5308,-4.5308,0,-4.4654,-4.4688,-4.4747,-4.4775,-4.4803,-4.4847,-4.4877,-4.4911,-4.4942,-4.4997,-4.5023,-4.5074,-4.5116,-4.5193,-4.5231,-4.528,-4.5287,-4.5308,-4.5295,-4.5285,-4.5286,-4.5283,-4.5286,-4.5309,-4.5309,-4.531,-4.531,0,-4.4698,-4.4713,-4.4757,-4.4806,-4.4841,-4.4882,-4.4922,-4.4943,-4.4984,-4.5018,-4.5068,-4.5101,-4.5165,-4.5215,-4.5267,-4.5295,-4.5309,-4.5314,-4.5321,-4.5313,-4.5298,-4.5305,-4.5251,-4.5312,-4.5312,-4.5311,-4.5311,-4.5311,-4.4724,-4.4755,-4.4801,-4.4848,-4.4882,-4.4919,-4.4952,-4.4984,-4.5026,-4.5081,-4.5098,-4.515,-4.5195,-4.5266,-4.5295,-4.5336,-4.5335,-4.5346,-4.5349,-4.5351,-4.535,-4.5292,-4.5346,-4.5346,-4.5346,-4.5346,-4.5346,0,-4.4768,-4.4798,-4.4841,-4.4897,-4.4933,-4.4943,-4.4988,-4.5018,-4.5063,-4.5104,-4.5144,-4.5201,-4.5249,-4.529,-4.534,-4.5364,-4.5372,-4.5376,-4.5374,-4.5381,-4.5349,-4.5337,-4.5369,-4.5369,-4.5369,-4.5369,-4.5369,-4.5369,-4.4795,-4.4848,-4.4868,-4.4937,-4.4967,-4.5017,-4.5042,-4.5076,-4.5108,-4.5171,-4.521,-4.5237,-4.5278,-4.533,-4.5374,-4.5385,-4.5402,-4.5404,-4.5416,-4.5386,-4.5383,-4.538,-4.5369,-4.5408,-4.5408,-4.5445,-4.5445,-4.5445]},{"header":{"parameterUnit":"m.s-1","parameterCategory":1,"la1":30.2991,"la2":30.254,"lo1":-89.0895,"lo2":-89.0444,"dy":0.0017,"dx":0.0017,"nx":28,"ny":28,"refTime":"2024-03-04T09:00:00:Z","depth":0,"parameterNumber":3,"parameterNumberName":"V-component_of_WINDS"},"data":[0,0,0,0,0,0,0,0,0,0,0,0,0,0,0,0,0,0,0,0,0,0,0,0,0,0,0,0,0,0,0,0,0,0,0,0,0,0,0,0,0,0,0,0,0,0,0,0,0,0,0,0,0,0,0,0,0,0,4.7177,4.7178,0,4.7256,4.7257,4.7258,4.7235,4.7234,4.7232,4.7231,4.7306,4.7309,4.7312,0,0,0,0,0,0,0,0,0,0,0,0,0,4.7003,4.7006,4.7177,4.7178,4.7179,4.7256,4.7257,4.7258,4.7236,4.7234,4.7232,4.723,4.7304,4.7309,4.7313,0,0,0,0,0,0,0,0,0,0,0,0,0,4.7079,4.7007,4.7176,4.7177,4.7178,4.7256,4.7257,4.7258,4.7236,4.7234,4.7231,4.7229,4.7303,4.7308,4.7313,4.7394,0,0,4.7329,4.7332,0,0,0,0,0,0,0,0,4.7075,4.7086,4.7176,4.7177,4.7178,4.7233,4.7223,4.7303,4.7237,4.7214,4.7231,4.7228,4.7283,4.729,4.731,4.7397,4.74,4.733,4.7333,4.7335,4.7337,0,0,0,0,0,0,0,4.707,4.7082,4.7208,4.7177,4.7179,4.7172,4.718,4.7238,4.7261,4.7215,4.7214,4.7224,4.7283,4.7305,4.7311,4.7401,4.733,4.7334,4.7337,4.734,4.7561,4.7563,0,0,0,0,0,0,4.7064,4.7078,4.7205,4.721,4.712,4.7177,4.7186,4.7218,4.726,4.7264,4.7226,4.7223,4.7297,4.7305,4.7314,4.7412,4.7335,4.734,4.7343,4.7558,4.7561,4.7564,0,0,0,0,0,0,4.7061,4.7076,4.7202,4.7144,4.7159,4.7183,4.7218,4.7221,4.7242,4.7268,4.7271,4.7244,4.7295,4.7306,4.7375,4.7414,4.7342,4.7347,4.7555,4.7559,4.7563,4.7607,0,0,0,0,0,0,4.7056,4.7075,4.7106,4.7145,4.7163,4.7263,4.7221,4.7224,4.7252,4.7249,4.7286,4.729,4.7294,4.7367,4.738,4.742,4.7351,4.7551,4.7557,4.7561,4.7602,4.7612,4.7621,0,0,0,0,0,4.705,4.7113,4.7108,4.7123,4.7202,4.7265,4.7275,4.7281,4.7255,4.7287,4.7304,4.7289,4.7408,4.7374,4.7389,4.743,4.7549,4.7555,4.7561,4.7598,4.761,4.762,0,0,0,0,0,0,4.7075,4.7118,4.7112,4.7191,4.7225,4.7261,4.73,4.7293,4.7333,4.7328,4.7332,4.734,4.7411,4.7427,4.7389,4.7511,4.7474,4.7484,4.7497,4.7509,4.7518,4.7512,4.7356,0,0,0,0,0,4.7091,4.7139,4.7174,4.7239,4.7257,4.7276,4.7304,4.7306,4.734,4.7354,4.7375,4.7408,4.7453,4.7482,4.7525,4.7605,4.7613,4.7641,4.7651,4.7658,4.7665,4.771,4.7723,4.7585,4.7584,4.7584,0,0,4.7121,4.7151,4.7181,4.7246,4.7272,4.7322,4.7288,4.7341,4.7378,4.7361,4.7427,4.7445,4.7482,4.7557,4.7591,4.7573,4.7706,4.7666,4.7672,4.7675,4.7718,4.7731,4.7743,4.7589,4.7588,4.7587,0,0,4.7203,4.723,4.7289,4.7318,4.736,4.7373,4.7387,4.7426,4.7438,4.7505,4.7495,4.7538,4.7615,4.7642,4.7666,4.7763,4.775,4.7777,4.7824,4.7868,4.7879,4.7888,4.7923,4.7935,4.7784,4.7784,4.7785,0,4.7235,4.731,4.7319,4.7375,4.7404,4.7395,4.7454,4.7481,4.7534,4.7553,4.7534,4.7633,4.7656,4.7738,4.7763,4.7782,4.7798,4.7771,4.7877,4.7887,4.7896,4.7929,4.7941,4.7787,4.7787,4.7787,4.7786,0,4.7348,4.7401,4.7444,4.7499,4.7532,4.7589,4.7606,4.764,4.764,4.7655,4.7725,4.7754,4.7804,4.7824,4.7823,4.7906,4.7894,4.7876,4.7838,4.7912,4.7943,4.7955,4.7791,4.779,4.779,4.7789,0,0,4.7444,4.7507,4.7522,4.7548,4.7596,4.7636,4.7693,4.7745,4.7773,4.7811,4.7858,4.7926,4.7911,4.7938,4.7941,4.798,4.8055,4.7957,4.7958,4.7973,4.8149,4.8162,4.8176,4.8049,4.8051,4.8053,4.8146,0,4.7529,4.7632,4.7644,4.7735,4.7784,4.7778,4.7828,4.7863,4.7879,4.7923,4.794,4.7989,4.7964,4.7981,4.8019,4.8038,4.809,4.8032,4.8092,4.8094,4.8081,4.8193,4.8206,4.8292,4.8158,4.816,4.8162,0,4.7641,4.7686,4.7783,4.7827,4.7848,4.7893,4.7942,4.7984,4.8024,4.8033,4.8066,4.8065,4.8124,4.8086,4.8167,4.8127,4.8153,4.8166,4.8169,4.8174,4.8131,4.8199,4.8319,4.8332,4.8181,4.8179,4.8178,0,4.7701,4.7786,4.7855,4.7877,4.793,4.7962,4.7985,4.8023,4.8054,4.8097,4.8117,4.8165,4.8191,4.8228,4.824,4.8212,4.8321,4.8284,4.8329,4.8329,4.835,4.8348,4.8475,4.8369,4.8369,4.8368,4.8368,0,4.7794,4.7853,4.7883,4.7926,4.7992,4.8006,4.8071,4.8093,4.8127,4.8173,4.8171,4.8213,4.8227,4.8273,4.8282,4.8348,4.836,4.8368,4.837,4.8368,4.8367,4.8383,4.8377,4.8372,4.8371,4.837,4.837,0,4.7871,4.7893,4.7969,4.8015,4.8028,4.8075,4.8113,4.8154,4.8172,4.823,4.8245,4.8272,4.8325,4.8342,4.8405,4.8412,4.8489,4.8485,4.8476,4.8476,4.852,4.8515,4.866,4.868,4.8562,4.8563,4.8564,0,4.7928,4.7974,4.8026,4.8059,4.8084,4.8135,4.8168,4.8184,4.8218,4.8269,4.8303,4.8357,4.8401,4.8487,4.8511,4.856,4.8557,4.8605,4.8564,4.8561,4.8557,4.8554,4.8558,4.8612,4.8613,4.8614,4.8615,0,4.8027,4.8037,4.8085,4.8139,4.8179,4.8222,4.8262,4.8288,4.831,4.8348,4.8405,4.8439,4.8507,4.856,4.8611,4.8633,4.8627,4.8628,4.8641,4.8638,4.8631,4.8635,4.8496,4.8624,4.8623,4.8622,4.8622,4.8621,4.8095,4.8137,4.8181,4.8236,4.8269,4.8308,4.835,4.8375,4.8423,4.848,4.8487,4.8548,4.8588,4.8656,4.8682,4.8729,4.8715,4.8733,4.8738,4.8742,4.8745,4.8626,4.8738,4.8738,4.8738,4.8737,4.8737,0,4.8193,4.8223,4.8274,4.8333,4.8376,4.8371,4.8417,4.8453,4.8507,4.8547,4.8591,4.8657,4.871,4.874,4.8793,4.8825,4.8823,4.8838,4.8834,4.884,4.8755,4.8738,4.8838,4.8838,4.8838,4.8838,4.8838,4.8838,4.8249,4.832,4.8336,4.8424,4.8452,4.8514,4.8541,4.8577,4.8609,4.8683,4.8728,4.8749,4.8785,4.884,4.8889,4.8896,4.8915,4.8931,4.8936,4.8856,4.8846,4.8836,4.882,4.8935,4.8935,4.9017,4.9018,4.9018]}]]